Tracking 19795 objects as of 18-Jul-2019
HD Live streaming from Space Station
objects crossing your sky now

NOAA 16 DEB

Track NOAA 16 DEB now!
10-day predictions


NORAD ID: 41430
Int'l Code: 2000-055LK
Perigee: 791.8 km
Apogee: 860.6 km
Inclination: 98.9 °
Period: 101.3 minutes
Semi major axis: 7197 km
RCS: Unknown
Launch date: September 21, 2000
Source: United States (US)
Launch site: AIR FORCE WESTERN TEST RANGE (AFWTR)

Note: This is SATELLITE DEBRIS
aabbcc
Your satellite tracking list
Your tracking list is empty




NASA's NSSDC Master Catalog

Two Line Element Set (TLE):
1 41430U 00055LK  19198.06834445 +.00000805 +00000-0 +38184-3 0  9994
2 41430 098.9178 298.3929 0047769 294.2561 065.3629 14.21871351180799
Source of the keplerian elements: AFSPC